Regional Weather Roundup
Issued by NWS

Home | Current Version | Previous Version | Graphics & Text | Print | Product List | Glossary On
Versions: 1 2 3 4 5 6 7 8 9 10 11 12 13 14 15 16 17 18 19 20 21 22 23 24 25 26 27 28 29 30 31 32 33 34 35 36 37 38 39 40 41 42 43 44 45 46 47 48 49 50
000
ASUS43 KMPX 242201
RWRMN
WEATHER ROUNDUP FOR MINNESOTA
NATIONAL WEATHER SERVICE TWIN CITIES/CHANHASSEN MN
400 PM CST FRI FEB 24 2017


NOTE: "FAIR" INDICATES FEW OR NO CLOUDS BELOW 12,000 FEET WITH NO
SIGNIFICANT WEATHER AND/OR OBSTRUCTIONS TO VISIBILITY. N/A MEANS
CURRENT SKY AND/OR WEATHER CONDITIONS ARE NOT AVAILABLE.

MNZ060>063-068>070-242300-
   Twin Cities Metro

CITY           SKY/WX    TMP DP  RH WIND       PRES   REMARKS
TWIN CITIES    CLOUDY    27  12  53 N21G29    29.82S WCI  13
ST PAUL        CLOUDY    27  14  58 N21G30    29.83S WCI  13
CRYSTAL        CLOUDY    27  11  51 N17G25    29.82S WCI  14
BLAINE         CLOUDY    27  16  63 N20G28    29.83R WCI  13
LAKEVILLE      CLOUDY    25  16  68 N16G23    29.80R WCI  12
EDEN PRAIRIE   CLOUDY    27  13  55 N20G26    29.81S WCI  13
SOUTH ST PAUL  CLOUDY    27  14  56 N16G23    29.81S WCI  15
LAKE ELMO      PTSUNNY   27  18  69 N16G23    29.81S WCI  14
$$
MNZ001>005-007-008-013>017-022>024-027-028-242300-
   Northwest Minnesota

CITY           SKY/WX    TMP DP  RH WIND       PRES   REMARKS
BEMIDJI        SUNNY     22   8  54 NW14G22   29.97S WCI   9
HALLOCK        SUNNY     18  10  73 N16       30.12S WCI   3
ROSEAU         SUNNY     19   9  63 W12G17    30.04F WCI   7
WARROAD        SUNNY     19   7  58 NW10      30.03F WCI   8
THIEF RVR FALL SUNNY     21  10  62 NW20      30.07R WCI   6
CROOKSTON      SUNNY     19  12  73 N22G28    30.10S WCI   3
FOSSTON        SUNNY     23  10  58 N20       30.03S WCI   8
DETROIT LAKES  MOSUNNY   23  16  74 N10G24    30.00S WCI  12
MOORHEAD       CLOUDY    21  16  79 N22G29    30.07S WCI   5
PARK RAPIDS    SUNNY     24   6  46 N14G24    29.94S WCI  12
MAHNOMEN       FAIR      22  13  68 N20       30.02R WCI   7
$$
MNZ006-009>011-018-025>026-242300-
   North Central Minnesota

CITY           SKY/WX    TMP DP  RH WIND       PRES   REMARKS
BAUDETTE       SUNNY     17   4  56 N12       30.01S WCI   4
FLAG ISLAND    SUNNY     18   1  49 N16       30.03S WCI   3
INTL FALLS     MOSUNNY   20   4  50 N10       29.96F WCI   9
WASKISH        CLOUDY    19   7  58 N9        29.99F WCI   9
BIG FORK       SUNNY     21   5  49 NW7       29.93S WCI  13
LONGVILLE      SUNNY     21   7  53 NW8G16    29.92F WCI  12
GRAND RAPIDS   SUNNY     22   9  57 NW16      29.92S WCI   8
CRANE LAKE     CLOUDY    18   1  49 N6        29.95S WCI   9
ORR            MOSUNNY   18   1  49 NW6       29.90S WCI   9
COOK           CLOUDY    19   3  49 N8        29.91R WCI   9
WALKER         FAIR      21   6  53 N16G22    29.94F WCI   7
$$
MNZ012-019>021-037-242300-
   Northeast Minnesota

CITY           SKY/WX    TMP DP  RH WIND       PRES   REMARKS
DULUTH         MOSUNNY   20   9  62 N13       29.84S WCI   7
ELY            SUNNY     19   0  42 N8        29.88R WCI   9
HIBBING        SUNNY     20   5  52 N14       29.88F WCI   7
EVELETH        SUNNY     20  -2  38 NW10      29.89S WCI   9
DULUTH HARBOR  CLOUDY    25  16  68 N15G22    29.90S WCI  12
TWO HARBORS    CLOUDY    25  10  54 N9        29.85S WCI  15
SILVER BAY     SUNNY     21   5  49 N6        29.85S WCI  14
GRAND MARAIS     N/A     21   3  45 VRB6G16   29.90F WCI  13
G MARAIS ARPRT CLOUDY    12  -2  52 NW9G20    29.81F WCI   0
$$
MNZ029>031-032-039>041-046>048-054>057-064-242300-
   West Central Minnesota

CITY           SKY/WX    TMP DP  RH WIND       PRES   REMARKS
FERGUS FALLS   CLOUDY    23  14  68 N21G32    30.04S WCI   8
WHEATON        CLOUDY    25  16  68 NW20G29   30.04R WCI  11
MORRIS         PTSUNNY   27  16  63 N28G33    29.95S WCI  11
ALEXANDRIA     SUNNY     26  11  52 N22G29    29.92S WCI  12
ELBOW LAKE     PTSUNNY   24  14  64 N22G29    29.98R WCI   9
WADENA         SUNNY     23  10  58 N21G30    29.93S WCI   8
GLENWOOD       MOSUNNY   27  12  54 N20       29.91S WCI  13
APPLETON       PTSUNNY   28  16  59 N26G33    29.96S WCI  13
BENSON         MOSUNNY   30   9  40 N22G29    29.95S WCI  17
ORTONVILLE     CLOUDY    25  14  63 N24G36    29.98S WCI   9
MADISON        CLOUDY    28  16  59 N26G36    29.97R WCI  13
WILLMAR        FAIR      28  14  54 N23G29    29.91R WCI  14
$$
MNZ033>034-036-042>043-049>051-058-059-242300-
   Central Minnesota

CITY           SKY/WX    TMP DP  RH WIND       PRES   REMARKS
ST CLOUD       MOSUNNY   24  12  60 N18G26    29.87R WCI  10
SAUK CENTRE    FAIR      26   9  49 NW22G32   29.90S WCI  11
PAYNESVILLE    CLOUDY    26  11  53 N14G21    29.89R WCI  14
AITKIN         MOSUNNY   25   9  50 N18       29.88F WCI  11
PINE RIVER     SUNNY     21   9  58 N17G23    29.95S WCI   7
BRAINERD       SUNNY     22   9  57 N21G28    29.91S WCI   6
STAPLES        SUNNY     23   9  54 N21G28    29.92S WCI   8
LONG PRAIRIE   FAIR      27   9  46 NW16G26   29.90S WCI  14
LITTLE FALLS   MOSUNNY   27   9  46 N10G20    29.90S WCI  17
LITCHFIELD     MOSUNNY   28  14  54 N22G29    29.86S WCI  15
BUFFALO        MOSUNNY   28  12  52 N14G22    29.86S WCI  16
MAPLE LAKE     MOSUNNY   30  17  58 N16G24    29.87R WCI  18
HUTCHINSON     SUNNY     29  15  55 NW21G30   29.86R WCI  16
$$
MNZ037-044-045-052-053-242300-
   East Central Minnesota

CITY           SKY/WX    TMP DP  RH WIND       PRES   REMARKS
PRINCETON      MOSUNNY   27  12  54 NW17      29.86R WCI  14
MORA           MOSUNNY   27  14  59 N12G21    29.87S WCI  16
CAMBRIDGE      CLOUDY    27  14  59 N10G18    29.83S WCI  17
RUSH CITY      PTSUNNY   25  12  58 N12G22    29.85S WCI  14
MOOSE LAKE     CLOUDY    23  10  58 N15       29.86R WCI  10
HINCKLEY       MOCLDY    27  14  59 N17G23    29.85S WCI  14
CLOQUET        CLOUDY    19  10  68 N13G24    29.85F WCI   7
MCGREGOR       MOSUNNY   23  12  63 N14       29.89S WCI  11
$$
MNZ071>073-080-081-089-090-097-098-242300-
   Southwest Minnesota

CITY           SKY/WX    TMP DP  RH WIND       PRES   REMARKS
MONTEVIDEO     CLOUDY    27  16  63 N28G33    29.95S WCI  11
GRANITE FALLS  CLOUDY    30  16  57 NW20G30   29.94R WCI  17
CANBY          CLOUDY    27  17  65 NW21G30   29.97S WCI  14
MARSHALL       CLOUDY    26  16  65 N29       29.91R WCI  10
REDWOOD FALLS  CLOUDY    29   9  43 N17G32    29.88R WCI  17
OLIVIA         CLOUDY    30  14  51 N21G30    29.88R WCI  17
PIPESTONE      PTSUNNY   27  10  50 N22G33    29.90R WCI  12
WINDOM         CLOUDY    25  16  68 N25G38    29.83R WCI   9
WORTHINGTON    LGT SNOW  24  17  74 N29       29.85R WCI   7
JACKSON        MOSUNNY   25  18  74 N15G25    29.82R HAZE    WCI  12
TRACY          CLOUDY    28  16  60 N29G39    29.89R WCI  12
SLAYTON        CLOUDY    24  15  66 N31G37    29.86R WCI   7
$$
MNZ065>067-074>077-082>085-091>093-242300-
   South Central Minnesota

CITY           SKY/WX    TMP DP  RH WIND       PRES   REMARKS
MANKATO          N/A     26  17  68 N25       29.81R WCI  11
NEW ULM        CLOUDY    28  12  50 N14G25    29.83R WCI  17
ST JAMES       CLOUDY    25  18  74 N20G29    29.85R WCI  11
FAIRMONT       MOSUNNY   24  17  74 N23       29.81R WCI   9
GLENCOE        CLOUDY    28  18  64 N16       29.84S WCI  17
FARIBAULT      LGT SNOW  25  18  74 N16G23    29.79R WCI  12
OWATONNA         N/A     23  19  86 N21       29.77R WCI   8
WASECA         CLOUDY    23  18  80 N23G29    29.79R HAZE    WCI   7
ALBERT LEA     LGT SNOW  23  21  93 N12G18    29.75R WCI  12
$$
MNZ078>079-086>088-094>096-242300-
   Southeast Minnesota

CITY           SKY/WX    TMP DP  RH WIND       PRES   REMARKS
ROCHESTER      FOG       23  20  88 N18G29    29.71R VSB 1   WCI   9
RED WING       LGT SNOW  25  18  74 N6G17     29.77S WCI  18
STANTON        LGT SNOW  25  19  78 N22       29.78R WCI  10
DODGE CENTER     N/A     21  19  93 N22G28    29.73R WCI   5
WINONA         MIX PCPN  30  25  80 N10G16    29.73R WCI  21
AUSTIN           N/A     23  19  86 N15G23    29.72R WCI  10
PRESTON        CLOUDY    24  20  87 N16G25    29.68R WCI  10
$$
ABBREVIATIONS USED IN REMARKS
   TC - TEMPERATURES IN CELSIUS
  WCI - WIND CHILL INDEX
   HX - HEAT INDEX
  VSB - VISIBILITY
$$




USA.gov is the U.S. government's official web portal to all federal, state and local government web resources and services.